Time,TemperatureF,DewpointF,PressureIn,WindDirection,WindDirectionDegrees,WindSpeedMPH,WindSpeedGustMPH,Humidity,HourlyPrecipIn,Conditions,Clouds,dailyrainin,SoftwareType,DateUTC
2013-08-31 00:09:00,77.0,68.5,29.76,South,180,3.2,-999.0,75,-99.99,,,0.00,Acu-Link.com,2013-08-31 05:09:00,
2013-08-31 00:24:00,76.8,67.5,29.76,SW,225,0.0,-999.0,73,-99.99,,,0.00,Acu-Link.com,2013-08-31 05:24:00,
2013-08-31 00:39:00,77.0,66.4,29.76,SSW,202,4.7,-999.0,70,-99.99,,,0.00,Acu-Link.com,2013-08-31 05:39:00,
2013-08-31 00:55:00,77.0,66.0,29.77,SSE,157,1.7,-999.0,69,-99.99,,,0.00,Acu-Link.com,2013-08-31 05:55:00,
2013-08-31 01:10:00,77.2,65.4,29.77,South,180,0.0,-999.0,67,-99.99,,,0.00,Acu-Link.com,2013-08-31 06:10:00,
2013-08-31 01:25:00,77.4,65.1,29.76,SSE,157,0.0,-999.0,66,-99.99,,,0.00,Acu-Link.com,2013-08-31 06:25:00,
2013-08-31 01:41:00,77.4,64.7,29.76,South,180,2.2,-999.0,65,-99.99,,,0.00,Acu-Link.com,2013-08-31 06:41:00,
2013-08-31 01:56:00,77.7,65.0,29.74,South,180,0.0,-999.0,65,-99.99,,,0.00,Acu-Link.com,2013-08-31 06:56:00,
2013-08-31 02:11:00,78.1,64.9,29.75,SSW,202,3.7,-999.0,64,-99.99,,,0.00,Acu-Link.com,2013-08-31 07:11:00,
2013-08-31 02:27:00,77.7,64.5,29.76,ESE,112,0.0,-999.0,64,-99.99,,,0.00,Acu-Link.com,2013-08-31 07:27:00,
2013-08-31 02:42:00,76.1,66.0,29.78,ENE,67,3.7,-999.0,71,-99.99,,,0.00,Acu-Link.com,2013-08-31 07:42:00,
2013-08-31 02:57:00,74.7,66.2,29.78,East,90,0.0,-999.0,75,-99.99,,,0.00,Acu-Link.com,2013-08-31 07:57:00,
2013-08-31 03:13:00,74.1,66.8,29.78,ESE,112,0.0,-999.0,78,-99.99,,,0.00,Acu-Link.com,2013-08-31 08:13:00,
2013-08-31 03:28:00,73.8,66.9,29.78,ESE,112,2.2,-999.0,79,-99.99,,,0.00,Acu-Link.com,2013-08-31 08:28:00,
2013-08-31 03:44:00,73.6,67.0,29.78,East,90,7.3,-999.0,80,-99.99,,,0.00,Acu-Link.com,2013-08-31 08:44:00,
2013-08-31 03:59:00,73.4,67.2,29.78,ENE,67,5.8,-999.0,81,-99.99,,,0.00,Acu-Link.com,2013-08-31 08:59:00,
2013-08-31 04:14:00,73.0,67.5,29.78,ESE,112,5.3,-999.0,83,-99.99,,,0.00,Acu-Link.com,2013-08-31 09:14:00,
2013-08-31 04:29:00,72.7,67.2,29.77,SE,135,8.9,-999.0,83,-99.99,,,0.00,Acu-Link.com,2013-08-31 09:29:00,
2013-08-31 04:44:00,72.3,67.5,29.77,ENE,67,5.3,-999.0,85,-99.99,,,0.00,Acu-Link.com,2013-08-31 09:44:00,
2013-08-31 04:59:00,72.1,68.0,29.78,East,90,8.9,-999.0,87,-99.99,,,0.00,Acu-Link.com,2013-08-31 09:59:00,
2013-08-31 05:15:00,72.0,71.4,29.77,East,90,3.2,-999.0,98,-99.99,,,0.00,Acu-Link.com,2013-08-31 10:15:00,
2013-08-31 05:30:00,72.0,71.4,29.77,ENE,67,7.3,-999.0,98,-99.99,,,0.00,Acu-Link.com,2013-08-31 10:30:00,
2013-08-31 05:45:00,71.8,71.2,29.77,East,90,4.7,-999.0,98,-99.99,,,0.00,Acu-Link.com,2013-08-31 10:45:00,
2013-08-31 06:00:00,71.6,68.8,29.77,SSE,157,3.7,-999.0,91,-99.99,,,0.00,Acu-Link.com,2013-08-31 11:00:00,
2013-08-31 06:15:00,71.6,67.9,29.77,SE,135,2.2,-999.0,88,-99.99,,,0.00,Acu-Link.com,2013-08-31 11:15:00,
2013-08-31 06:31:00,71.4,70.8,29.78,ESE,112,4.7,-999.0,98,-99.99,,,0.00,Acu-Link.com,2013-08-31 11:31:00,
2013-08-31 06:46:00,71.2,70.6,29.78,ESE,112,5.8,-999.0,98,-99.99,,,0.00,Acu-Link.com,2013-08-31 11:46:00,
2013-08-31 07:01:00,71.2,70.6,29.77,East,90,8.3,-999.0,98,-99.99,,,0.00,Acu-Link.com,2013-08-31 12:01:00,
2013-08-31 07:16:00,71.8,68.0,29.77,ESE,112,4.7,-999.0,88,-99.99,,,0.00,Acu-Link.com,2013-08-31 12:16:00,
2013-08-31 07:31:00,72.1,67.7,29.77,ESE,112,5.8,-999.0,86,-99.99,,,0.00,Acu-Link.com,2013-08-31 12:31:00,
2013-08-31 07:46:00,73.0,67.9,29.78,ESE,112,2.7,-999.0,84,-99.99,,,0.00,Acu-Link.com,2013-08-31 12:46:00,
2013-08-31 08:01:00,73.2,67.7,29.77,SE,135,5.3,-999.0,83,-99.99,,,0.00,Acu-Link.com,2013-08-31 13:01:00,
2013-08-31 08:16:00,73.8,68.3,29.78,ENE,67,4.7,-999.0,83,-99.99,,,0.00,Acu-Link.com,2013-08-31 13:16:00,
2013-08-31 08:31:00,73.9,68.0,29.79,ESE,112,7.3,-999.0,82,-99.99,,,0.00,Acu-Link.com,2013-08-31 13:31:00,
2013-08-31 08:46:00,74.3,68.1,29.79,ESE,112,5.3,-999.0,81,-99.99,,,0.00,Acu-Link.com,2013-08-31 13:46:00,
2013-08-31 09:01:00,74.7,68.1,29.80,East,90,4.7,-999.0,80,-99.99,,,0.00,Acu-Link.com,2013-08-31 14:01:00,
2013-08-31 09:17:00,74.7,68.1,29.79,ESE,112,6.3,-999.0,80,-99.99,,,0.00,Acu-Link.com,2013-08-31 14:17:00,
2013-08-31 09:32:00,75.4,68.4,29.79,NE,45,4.7,-999.0,79,-99.99,,,0.00,Acu-Link.com,2013-08-31 14:32:00,
2013-08-31 09:47:00,75.9,68.5,29.79,ENE,67,6.8,-999.0,78,-99.99,,,0.00,Acu-Link.com,2013-08-31 14:47:00,
2013-08-31 10:02:00,77.2,68.6,29.79,NE,45,5.8,-999.0,75,-99.99,,,0.00,Acu-Link.com,2013-08-31 15:02:00,
2013-08-31 10:17:00,76.5,68.4,29.79,NE,45,1.7,-999.0,76,-99.99,,,0.00,Acu-Link.com,2013-08-31 15:17:00,
2013-08-31 10:33:00,78.8,68.6,29.78,ENE,67,5.8,-999.0,71,-99.99,,,0.00,Acu-Link.com,2013-08-31 15:33:00,
2013-08-31 10:48:00,79.9,68.8,29.79,East,90,0.0,-999.0,69,-99.99,,,0.00,Acu-Link.com,2013-08-31 15:48:00,
2013-08-31 11:03:00,81.3,69.3,29.79,SSE,157,7.3,-999.0,67,-99.99,,,0.00,Acu-Link.com,2013-08-31 16:03:00,
2013-08-31 11:18:00,79.5,68.8,29.79,East,90,2.2,-999.0,70,-99.99,,,0.00,Acu-Link.com,2013-08-31 16:18:00,
2013-08-31 11:34:00,80.6,69.0,29.79,ESE,112,5.3,-999.0,68,-99.99,,,0.00,Acu-Link.com,2013-08-31 16:34:00,
2013-08-31 11:49:00,81.0,69.0,29.79,ESE,112,2.7,-999.0,67,-99.99,,,0.00,Acu-Link.com,2013-08-31 16:49:00,
2013-08-31 12:04:00,81.0,69.4,29.79,NNE,22,1.1,-999.0,68,-99.99,,,0.00,Acu-Link.com,2013-08-31 17:04:00,
2013-08-31 12:19:00,80.8,69.2,29.79,ENE,67,0.0,-999.0,68,-99.99,,,0.00,Acu-Link.com,2013-08-31 17:19:00,
2013-08-31 12:35:00,81.7,68.3,29.79,NE,45,1.1,-999.0,64,-99.99,,,0.00,Acu-Link.com,2013-08-31 17:35:00,
2013-08-31 12:50:00,82.4,69.4,29.79,NE,45,2.7,-999.0,65,-99.99,,,0.00,Acu-Link.com,2013-08-31 17:50:00,
2013-08-31 13:05:00,82.0,69.0,29.79,ESE,112,1.1,-999.0,65,-99.99,,,0.00,Acu-Link.com,2013-08-31 18:05:00,
2013-08-31 13:21:00,82.0,68.6,29.79,NE,45,5.3,-999.0,64,-99.99,,,0.00,Acu-Link.com,2013-08-31 18:21:00,
2013-08-31 13:36:00,82.0,68.6,29.79,East,90,4.7,-999.0,64,-99.99,,,0.00,Acu-Link.com,2013-08-31 18:36:00,
2013-08-31 13:51:00,82.2,68.8,29.80,NNE,22,0.0,-999.0,64,-99.99,,,0.00,Acu-Link.com,2013-08-31 18:51:00,
2013-08-31 14:06:00,82.2,68.8,29.80,ENE,67,5.8,-999.0,64,-99.99,,,0.00,Acu-Link.com,2013-08-31 19:06:00,
2013-08-31 14:21:00,82.4,68.5,29.79,East,90,1.1,-999.0,63,-99.99,,,0.00,Acu-Link.com,2013-08-31 19:21:00,
2013-08-31 14:37:00,82.8,68.9,29.79,SE,135,0.0,-999.0,63,-99.99,,,0.00,Acu-Link.com,2013-08-31 19:37:00,
2013-08-31 14:52:00,82.8,68.4,29.78,ESE,112,4.2,-999.0,62,-99.99,,,0.00,Acu-Link.com,2013-08-31 19:52:00,
2013-08-31 15:07:00,83.3,68.9,29.78,East,90,5.3,-999.0,62,-99.99,,,0.00,Acu-Link.com,2013-08-31 20:07:00,
2013-08-31 15:23:00,84.2,69.3,29.78,NE,45,3.7,-999.0,61,-99.99,,,0.00,Acu-Link.com,2013-08-31 20:23:00,
2013-08-31 15:38:00,84.6,69.2,29.78,South,180,0.0,-999.0,60,-99.99,,,0.00,Acu-Link.com,2013-08-31 20:38:00,
2013-08-31 15:53:00,84.2,68.8,29.78,East,90,0.0,-999.0,60,-99.99,,,0.00,Acu-Link.com,2013-08-31 20:53:00,
2013-08-31 16:09:00,85.1,68.6,29.78,ESE,112,2.7,-999.0,58,-99.99,,,0.00,Acu-Link.com,2013-08-31 21:09:00,
2013-08-31 16:24:00,86.9,69.3,29.77,NE,45,1.1,-999.0,56,-99.99,,,0.00,Acu-Link.com,2013-08-31 21:24:00,
2013-08-31 16:39:00,84.9,68.9,29.77,NNE,22,0.0,-999.0,59,-99.99,,,0.00,Acu-Link.com,2013-08-31 21:39:00,
2013-08-31 16:55:00,85.6,69.1,29.77,ENE,67,0.0,-999.0,58,-99.99,,,0.00,Acu-Link.com,2013-08-31 21:55:00,
2013-08-31 17:10:00,86.0,69.0,29.77,ENE,67,0.0,-999.0,57,-99.99,,,0.00,Acu-Link.com,2013-08-31 22:10:00,
2013-08-31 17:25:00,87.1,68.9,29.77,NE,45,0.0,-999.0,55,-99.99,,,0.00,Acu-Link.com,2013-08-31 22:25:00,
2013-08-31 17:40:00,87.6,67.8,29.77,NNW,337,0.0,-999.0,52,-99.99,,,0.00,Acu-Link.com,2013-08-31 22:40:00,
2013-08-31 17:56:00,87.4,69.2,29.76,NE,45,0.0,-999.0,55,-99.99,,,0.00,Acu-Link.com,2013-08-31 22:56:00,
2013-08-31 18:11:00,86.2,69.7,29.77,ENE,67,0.0,-999.0,58,-99.99,,,0.00,Acu-Link.com,2013-08-31 23:11:00,
2013-08-31 18:26:00,86.2,69.7,29.76,NE,45,0.0,-999.0,58,-99.99,,,0.00,Acu-Link.com,2013-08-31 23:26:00,
2013-08-31 18:41:00,85.8,68.8,29.76,NE,45,0.0,-999.0,57,-99.99,,,0.00,Acu-Link.com,2013-08-31 23:41:00,
2013-08-31 18:56:00,84.4,69.5,29.77,NNE,22,0.0,-999.0,61,-99.99,,,0.00,Acu-Link.com,2013-08-31 23:56:00,
2013-08-31 19:12:00,82.4,69.4,29.76,NE,45,0.0,-999.0,65,-99.99,,,0.00,Acu-Link.com,2013-09-01 00:12:00,
2013-08-31 19:27:00,81.1,69.9,29.76,ESE,112,0.0,-999.0,69,-99.99,,,0.00,Acu-Link.com,2013-09-01 00:27:00,
2013-08-31 19:42:00,79.9,70.0,29.77,East,90,0.0,-999.0,72,-99.99,,,0.00,Acu-Link.com,2013-09-01 00:42:00,
2013-08-31 19:58:00,79.2,70.2,29.77,East,90,0.0,-999.0,74,-99.99,,,0.00,Acu-Link.com,2013-09-01 00:58:00,
2013-08-31 20:13:00,77.9,70.1,29.77,East,90,0.0,-999.0,77,-99.99,,,0.00,Acu-Link.com,2013-09-01 01:13:00,
2013-08-31 20:28:00,77.4,70.0,29.79,East,90,0.0,-999.0,78,-99.99,,,0.00,Acu-Link.com,2013-09-01 01:28:00,
2013-08-31 20:44:00,76.5,69.5,29.80,NE,45,0.0,-999.0,79,-99.99,,,0.00,Acu-Link.com,2013-09-01 01:44:00,
2013-08-31 20:59:00,76.1,69.8,29.81,East,90,0.0,-999.0,81,-99.99,,,0.00,Acu-Link.com,2013-09-01 01:59:00,
2013-08-31 21:14:00,75.4,69.9,29.81,NNE,22,0.0,-999.0,83,-99.99,,,0.00,Acu-Link.com,2013-09-01 02:14:00,
2013-08-31 21:29:00,75.0,70.2,29.81,NE,45,0.0,-999.0,85,-99.99,,,0.00,Acu-Link.com,2013-09-01 02:29:00,
2013-08-31 21:45:00,74.3,69.8,29.82,East,90,3.2,-999.0,86,-99.99,,,0.00,Acu-Link.com,2013-09-01 02:45:00,
2013-08-31 22:00:00,74.1,70.0,29.81,ESE,112,4.7,-999.0,87,-99.99,,,0.00,Acu-Link.com,2013-09-01 03:00:00,
2013-08-31 22:15:00,73.4,72.8,29.81,ESE,112,3.7,-999.0,98,-99.99,,,0.00,Acu-Link.com,2013-09-01 03:15:00,
2013-08-31 22:30:00,73.0,72.4,29.81,East,90,2.7,-999.0,98,-99.99,,,0.00,Acu-Link.com,2013-09-01 03:30:00,
2013-08-31 22:46:00,72.7,72.1,29.81,SE,135,0.0,-999.0,98,-99.99,,,0.00,Acu-Link.com,2013-09-01 03:46:00,
2013-08-31 23:01:00,72.3,71.7,29.80,ESE,112,1.7,-999.0,98,-99.99,,,0.00,Acu-Link.com,2013-09-01 04:01:00,
2013-08-31 23:16:00,72.1,71.5,29.80,ESE,112,0.0,-999.0,98,-99.99,,,0.00,Acu-Link.com,2013-09-01 04:16:00,
2013-08-31 23:31:00,71.8,71.2,29.80,East,90,0.0,-999.0,98,-99.99,,,0.00,Acu-Link.com,2013-09-01 04:31:00,
2013-08-31 23:46:00,71.4,70.8,29.79,ESE,112,0.0,-999.0,98,-99.99,,,0.00,Acu-Link.com,2013-09-01 04:46:00,